OTP-2

Last updated on Tue Aug 25 2026 00:03:14 GMT+0000 (Coordinated Universal Time)

1 63235U 25052AB 26236.49399536 .00005624 00000+0 22962-3 0 9990 2 63235 97.3770 127.9099 0004304 289.6740 70.4033 15.24791418 80274
UTC large
Height (km)
Speed (km/s)
/
Latitude / Longitude
Inclination (degrees)
Orbital Period (minutes)
Azimuth
Elevation
Range (km)
Doppler Factor

Next 0 passes for location: London (51.5072 / 0.1276)

No passes found over London.
OTP-2